#timestamp,LO_Frequency,Hit,StdDev 
1649325615.2,286046998.6,N
1649325635.9,286047000.4,N
1649325655.7,286047002.0,N
1649325675.6,286047001.3,N
1649325695.4,286047003.8,N
1649325715.2,286047002.0,N
1649325735.1,286046999.6,N
1649325736.0,286046999.6,N
1649325755.8,286047002.0,N
1649325775.7,286047002.6,N
1649325795.5,286047000.8,N
1649325815.3,286047002.0,N
1649325835.2,286047000.5,N
1649325855.0,286047001.9,N
1649325855.9,286047001.9,N
1649325875.7,286047001.9,N
1649325895.6,286046998.4,N
1649325915.4,286047000.0,N
1649325935.3,286047002.0,N
1649325955.1,286047001.9,N
1649325956.0,286047001.9,N
1649325975.8,286047001.6,N
1649325995.7,286047007.4,N
1649326015.5,286047004.0,N
1649326035.3,286047004.4,N
1649326055.2,286047002.7,N
1649326075.0,286047006.6,N
1649326075.9,286047006.6,N
1649326095.8,286047008.2,Y
1649326115.6,286047008.2,P
1649326135.4,286047009.1,N
1649326155.3,286047008.9,N
1649326205.1,286047006.9,E
1649326215.1,286047005.5,N
1649326216.0,286047005.5,P
1649326235.8,286047001.8,P
1649326255.6,286047005.8,Y
1649326275.5,286046998.7,P
1649326295.3,286047000.0,N
1649326315.2,286047005.4,N
1649326335.9,286047004.0,N
1649326355.7,286047001.8,N
1649326375.6,286047001.5,N
1649326395.4,286047001.5,N
1649326415.2,286047005.8,N
1649326435.1,286047001.2,N
1649326436.0,286047001.2,N
1649326455.8,286046999.9,N
1649326475.7,286047001.3,N
1649326495.5,286047002.1,N
1649326515.3,286047000.8,N
1649326535.2,286047002.8,N
1649326555.0,286047004.1,N
1649326555.9,286047004.1,N
1649326575.8,286047000.4,N
1649326595.6,286047005.7,N
1649326615.4,286047003.1,N
1649326635.3,286047005.9,N
1649326655.1,286047001.5,N
1649326675.8,286047007.1,Y
1649326695.7,286047002.0,P
1649326715.5,286047001.4,P
1649326735.4,286047001.7,P
1649326755.2,286047000.3,N
1649326775.0,286046996.7,Y
1649326775.9,286046996.7,P
1649326795.8,286046995.4,N
1649326815.6,286046996.9,N
1649326835.4,286046999.0,N
1649326855.3,286046997.6,N
1649326875.1,286046995.8,N
1649326895.9,286046992.3,Y
1649326915.7,286046995.1,P
1649326935.5,286046999.5,N
1649326955.4,286047004.2,N
1649326975.2,286047003.2,N
1649326995.0,286046999.2,N
1649326996.0,286046999.2,N
1649327015.8,286047000.4,N
1649327035.6,286047007.8,N
1649327055.5,286047012.1,Y
1649327075.3,286047007.1,P
1649327095.1,286047001.8,N
1649327115.9,286047002.3,N
1649327135.7,286047004.4,N
1649327155.6,286047001.6,N
1649327175.4,286047005.4,N
1649327195.2,286047005.4,N
1649327215.1,286047002.4,N
1649327216.0,286047002.4,N
1649327235.8,286047005.3,N
1649327255.6,286047003.3,N
1649327275.5,286047003.1,N
1649327295.3,286047005.9,Y
1649327315.2,286046995.5,P
1649327335.9,286046996.1,N
1649327355.7,286046995.1,N
1649327375.6,286046997.7,N
1649327395.4,286046990.9,N
1649327415.3,286046993.9,N
1649327435.1,286046991.9,N
1649327436.0,286046991.9,N
1649327455.8,286046994.9,N
1649327475.7,286047000.9,N
1649327495.5,286047002.3,N
1649327515.3,286047002.3,N
1649327535.2,286047001.1,N
1649327555.0,286046998.2,N
1649327555.9,286046998.2,N
1649327575.8,286047000.8,N
1649327595.6,286046998.6,N
1649327615.4,286047000.4,N
1649327635.3,286046999.7,N
1649327655.1,286047006.2,N
1649327675.9,286047010.2,N
1649327695.7,286047010.8,N
1649327715.5,286047008.0,N
1649327735.4,286047009.6,N
1649327755.2,286047008.4,N
1649327775.0,286047003.0,N
1649327775.9,286047003.0,N
1649327795.8,286047004.5,N
1649327815.6,286047002.9,N
1649327835.5,286047008.6,N
1649327855.3,286047005.4,N
1649327875.1,286047000.2,N
1649327895.9,286047001.1,N
1649327915.7,286047001.5,N
1649327935.6,286047003.8,N
1649327955.4,286046999.2,N
1649327975.2,286046996.3,N
1649327995.1,286046989.2,N
1649327996.0,286046989.2,N
1649328015.8,286046987.2,N
1649328035.6,286046988.8,N
1649328055.5,286046989.2,N
1649328075.3,286046991.9,N
1649328095.2,286046992.4,N
1649328115.9,286046995.1,N
1649328135.7,286046999.1,N
1649328155.6,286047004.3,N
1649328175.4,286046999.9,N
1649328195.2,286046998.7,N
1649328215.1,286046998.6,N
1649328216.0,286046998.6,N
1649328235.8,286046997.6,N
1649328255.7,286046995.5,N
1649328275.5,286046998.0,N
1649328295.3,286046997.4,N
1649328315.2,286046999.3,N
1649328335.0,286047001.2,N
1649328335.9,286047001.2,N
1649328355.7,286047002.4,N
1649328375.6,286046998.8,N
1649328395.4,286046996.1,N
1649328415.3,286046992.5,N
1649328435.1,286046987.0,N
1649328436.0,286046987.0,N
1649328455.8,286046985.7,N
1649328475.7,286046986.1,N
1649328495.5,286046982.2,Y
1649328515.4,286046986.5,P
1649328535.2,286046982.9,P
1649328555.0,286046981.1,P
1649328555.9,286046981.1,Y
1649328575.8,286046993.5,P
1649328595.6,286046991.7,N
1649328615.4,286046993.9,N
1649328635.3,286046990.8,Y
1649328655.1,286046998.5,P
1649328675.9,286047000.1,N
1649328695.7,286046999.4,N
1649328715.5,286046996.1,N
1649328735.4,286046994.4,N
1649328755.2,286046992.5,N
1649328775.0,286046993.0,N
1649328776.0,286046993.0,N
1649328795.8,286046994.0,N
1649328815.6,286046991.9,N
1649328835.5,286046991.4,N
1649328855.3,286046988.9,Y
1649328875.1,286046991.9,P
1649328895.9,286046994.8,P
1649328915.7,286046997.7,N
1649328935.6,286047002.1,N
1649328955.4,286047001.8,N
1649328975.2,286047001.0,N
1649328995.1,286046997.3,N
1649328996.0,286046997.3,N
1649329015.8,286046994.0,N
1649329035.7,286046993.9,N
1649329055.5,286047002.6,N
1649329075.3,286047003.0,N
1649329095.2,286047001.9,N
1649329115.0,286047001.1,N
1649329115.9,286047001.1,N
1649329135.7,286046996.9,N
1649329155.6,286046994.5,N
1649329175.4,286046994.3,N
1649329195.3,286046994.8,N
